Time,TemperatureF,DewpointF,PressureIn,WindDirection,WindDirectionDegrees,WindSpeedMPH,WindSpeedGustMPH,Humidity,HourlyPrecipIn,Conditions,Clouds,dailyrainin,SolarRadiationWatts/m^2,SoftwareType,DateUTC
2013-05-31 00:02:00,65.0,55.0,-100.00,South,174,4.0,16.0,70,0.00,,,0.02,0.000000,,2013-05-31 05:02:00,
2013-05-31 00:11:00,63.0,54.0,-100.00,WSW,243,6.0,13.0,72,0.00,,,0.02,0.000000,,2013-05-31 05:11:00,
2013-05-31 00:32:00,63.0,54.0,-100.00,WSW,243,6.0,13.0,72,0.00,,,0.02,0.000000,,2013-05-31 05:32:00,
2013-05-31 00:42:00,63.0,54.0,-100.00,WSW,243,6.0,13.0,72,0.00,,,0.02,0.000000,,2013-05-31 05:42:00,
2013-05-31 00:52:00,63.0,54.0,-100.00,WSW,243,6.0,13.0,72,0.00,,,0.02,0.000000,,2013-05-31 05:52:00,
2013-05-31 01:02:00,63.0,54.0,-100.00,WSW,243,6.0,13.0,72,0.00,,,0.02,0.000000,,2013-05-31 06:02:00,
2013-05-31 01:11:00,58.0,56.0,-100.00,NE,35,0.0,7.0,92,0.00,,,0.00,0.000000,,2013-05-31 06:11:00,
2013-05-31 01:32:00,58.0,56.0,-100.00,NE,35,0.0,7.0,92,0.00,,,0.00,0.000000,,2013-05-31 06:32:00,
2013-05-31 01:42:00,58.0,56.0,-100.00,NE,35,0.0,7.0,92,0.00,,,0.00,0.000000,,2013-05-31 06:42:00,
2013-05-31 01:52:00,58.0,56.0,-100.00,NE,35,0.0,7.0,92,0.00,,,0.00,0.000000,,2013-05-31 06:52:00,
2013-05-31 02:02:00,58.0,56.0,-100.00,NE,35,0.0,7.0,92,0.00,,,0.00,0.000000,,2013-05-31 07:02:00,
2013-05-31 02:11:00,58.0,56.0,-100.00,South,191,2.0,4.0,92,0.00,,,0.00,0.000000,,2013-05-31 07:11:00,
2013-05-31 02:32:00,58.0,56.0,-100.00,South,191,2.0,4.0,92,0.00,,,0.00,0.000000,,2013-05-31 07:32:00,
2013-05-31 02:42:00,58.0,56.0,-100.00,South,191,2.0,4.0,92,0.00,,,0.00,0.000000,,2013-05-31 07:42:00,
2013-05-31 02:52:00,58.0,56.0,-100.00,South,191,2.0,4.0,92,0.00,,,0.00,0.000000,,2013-05-31 07:52:00,
2013-05-31 03:02:00,58.0,56.0,-100.00,South,191,2.0,4.0,92,0.00,,,0.00,0.000000,,2013-05-31 08:02:00,
2013-05-31 03:11:00,59.0,54.0,-100.00,SSW,198,9.0,13.0,83,0.00,,,0.00,0.000000,,2013-05-31 08:11:00,
2013-05-31 03:32:00,59.0,54.0,-100.00,SSW,198,9.0,13.0,83,0.00,,,0.00,0.000000,,2013-05-31 08:32:00,
2013-05-31 03:42:00,59.0,54.0,-100.00,SSW,198,9.0,13.0,83,0.00,,,0.00,0.000000,,2013-05-31 08:42:00,
2013-05-31 03:52:00,59.0,54.0,-100.00,SSW,198,9.0,13.0,83,0.00,,,0.00,0.000000,,2013-05-31 08:52:00,
2013-05-31 04:01:00,59.0,54.0,-100.00,SSW,198,9.0,13.0,83,0.00,,,0.00,0.000000,,2013-05-31 09:01:00,
2013-05-31 04:11:00,58.0,52.0,-100.00,SSW,201,9.0,13.0,79,0.00,,,0.00,0.000000,,2013-05-31 09:11:00,
2013-05-31 04:32:00,58.0,52.0,-100.00,SSW,201,9.0,13.0,79,0.00,,,0.00,0.000000,,2013-05-31 09:32:00,
2013-05-31 04:43:00,58.0,52.0,-100.00,SSW,201,9.0,13.0,79,0.00,,,0.00,0.000000,,2013-05-31 09:43:00,
2013-05-31 04:53:00,58.0,52.0,-100.00,SSW,201,9.0,13.0,79,0.00,,,0.00,0.000000,,2013-05-31 09:53:00,
2013-05-31 05:02:00,58.0,52.0,-100.00,SSW,201,9.0,13.0,79,0.00,,,0.00,0.000000,,2013-05-31 10:02:00,
2013-05-31 05:11:00,58.0,50.0,-100.00,SSW,210,11.0,18.0,74,0.00,,,0.00,0.000000,,2013-05-31 10:11:00,
2013-05-31 05:33:00,58.0,50.0,-100.00,SSW,210,11.0,18.0,74,0.00,,,0.00,0.000000,,2013-05-31 10:33:00,
2013-05-31 05:42:00,58.0,50.0,-100.00,SSW,210,11.0,18.0,74,0.00,,,0.00,0.000000,,2013-05-31 10:42:00,
2013-05-31 05:52:00,58.0,50.0,-100.00,SSW,210,11.0,18.0,74,0.00,,,0.00,0.000000,,2013-05-31 10:52:00,
2013-05-31 06:02:00,58.0,50.0,-100.00,SSW,210,11.0,18.0,74,0.00,,,0.00,0.000000,,2013-05-31 11:02:00,
2013-05-31 06:11:00,57.0,48.0,-100.00,SW,225,12.0,16.0,73,0.00,,,0.00,2.000000,,2013-05-31 11:11:00,
2013-05-31 06:32:00,57.0,48.0,-100.00,SW,225,12.0,16.0,73,0.00,,,0.00,2.000000,,2013-05-31 11:32:00,
2013-05-31 06:42:00,57.0,48.0,-100.00,SW,225,12.0,16.0,73,0.00,,,0.00,2.000000,,2013-05-31 11:42:00,
2013-05-31 06:52:00,57.0,48.0,-100.00,SW,225,12.0,16.0,73,0.00,,,0.00,2.000000,,2013-05-31 11:52:00,
2013-05-31 07:01:00,57.0,48.0,-100.00,SW,225,12.0,16.0,73,0.00,,,0.00,2.000000,,2013-05-31 12:01:00,
2013-05-31 07:11:00,59.0,49.0,-100.00,SW,228,14.0,19.0,69,0.00,,,0.00,16.000000,,2013-05-31 12:11:00,
2013-05-31 07:32:00,59.0,49.0,-100.00,SW,228,14.0,19.0,69,0.00,,,0.00,16.000000,,2013-05-31 12:32:00,
2013-05-31 07:42:00,59.0,49.0,-100.00,SW,228,14.0,19.0,69,0.00,,,0.00,16.000000,,2013-05-31 12:42:00,
2013-05-31 07:52:00,59.0,49.0,-100.00,SW,228,14.0,19.0,69,0.00,,,0.00,16.000000,,2013-05-31 12:52:00,
2013-05-31 08:01:00,59.0,49.0,-100.00,SW,228,14.0,19.0,69,0.00,,,0.00,16.000000,,2013-05-31 13:01:00,
2013-05-31 08:11:00,62.0,50.0,-100.00,SW,230,13.0,22.0,64,0.00,,,0.00,185.000000,,2013-05-31 13:11:00,
2013-05-31 08:32:00,62.0,50.0,-100.00,SW,230,13.0,22.0,64,0.00,,,0.00,185.000000,,2013-05-31 13:32:00,
2013-05-31 08:42:00,62.0,50.0,-100.00,SW,230,13.0,22.0,64,0.00,,,0.00,185.000000,,2013-05-31 13:42:00,
2013-05-31 08:52:00,62.0,50.0,-100.00,SW,230,13.0,22.0,64,0.00,,,0.00,185.000000,,2013-05-31 13:52:00,
2013-05-31 09:02:00,62.0,50.0,-100.00,SW,230,13.0,22.0,64,0.00,,,0.00,185.000000,,2013-05-31 14:02:00,
2013-05-31 09:11:00,65.0,51.0,-100.00,SW,235,14.0,22.0,60,0.00,,,0.00,342.000000,,2013-05-31 14:11:00,
2013-05-31 09:32:00,65.0,51.0,-100.00,SW,235,14.0,22.0,60,0.00,,,0.00,342.000000,,2013-05-31 14:32:00,
2013-05-31 09:42:00,65.0,51.0,-100.00,SW,235,14.0,22.0,60,0.00,,,0.00,342.000000,,2013-05-31 14:42:00,
2013-05-31 09:52:00,65.0,51.0,-100.00,SW,235,14.0,22.0,60,0.00,,,0.00,342.000000,,2013-05-31 14:52:00,
2013-05-31 10:01:00,65.0,51.0,-100.00,SW,235,14.0,22.0,60,0.00,,,0.00,342.000000,,2013-05-31 15:01:00,
2013-05-31 10:11:00,67.0,49.0,-100.00,SW,231,15.0,22.0,53,0.00,,,0.00,478.000000,,2013-05-31 15:11:00,
2013-05-31 10:33:00,67.0,49.0,-100.00,SW,231,15.0,22.0,53,0.00,,,0.00,478.000000,,2013-05-31 15:33:00,
2013-05-31 10:43:00,67.0,49.0,-100.00,SW,231,15.0,22.0,53,0.00,,,0.00,478.000000,,2013-05-31 15:43:00,
2013-05-31 10:53:00,67.0,49.0,-100.00,SW,231,15.0,22.0,53,0.00,,,0.00,478.000000,,2013-05-31 15:53:00,
2013-05-31 11:03:00,67.0,49.0,-100.00,SW,231,15.0,22.0,53,0.00,,,0.00,478.000000,,2013-05-31 16:03:00,
2013-05-31 11:11:00,70.0,50.0,-100.00,SW,224,17.0,22.0,49,0.00,,,0.00,656.000000,,2013-05-31 16:11:00,
2013-05-31 11:33:00,70.0,50.0,-100.00,SW,224,17.0,22.0,49,0.00,,,0.00,656.000000,,2013-05-31 16:33:00,
2013-05-31 11:42:00,70.0,50.0,-100.00,SW,224,17.0,22.0,49,0.00,,,0.00,656.000000,,2013-05-31 16:42:00,
2013-05-31 11:52:00,70.0,50.0,-100.00,SW,224,17.0,22.0,49,0.00,,,0.00,656.000000,,2013-05-31 16:52:00,
2013-05-31 12:02:00,70.0,50.0,-100.00,SW,224,17.0,22.0,49,0.00,,,0.00,656.000000,,2013-05-31 17:02:00,
2013-05-31 12:11:00,70.0,49.0,-100.00,SW,234,16.0,29.0,48,0.00,,,0.00,496.000000,,2013-05-31 17:11:00,
2013-05-31 12:32:00,70.0,49.0,-100.00,SW,234,16.0,29.0,48,0.00,,,0.00,496.000000,,2013-05-31 17:32:00,
2013-05-31 12:42:00,70.0,49.0,-100.00,SW,234,16.0,29.0,48,0.00,,,0.00,496.000000,,2013-05-31 17:42:00,
2013-05-31 12:52:00,70.0,49.0,-100.00,SW,234,16.0,29.0,48,0.00,,,0.00,496.000000,,2013-05-31 17:52:00,
2013-05-31 13:02:00,70.0,49.0,-100.00,SW,234,16.0,29.0,48,0.00,,,0.00,496.000000,,2013-05-31 18:02:00,
2013-05-31 13:11:00,72.0,49.0,-100.00,SW,228,22.0,35.0,44,0.00,,,0.00,685.000000,,2013-05-31 18:11:00,
2013-05-31 13:32:00,72.0,49.0,-100.00,SW,228,22.0,35.0,44,0.00,,,0.00,685.000000,,2013-05-31 18:32:00,
2013-05-31 13:42:00,72.0,49.0,-100.00,SW,228,22.0,35.0,44,0.00,,,0.00,685.000000,,2013-05-31 18:42:00,
2013-05-31 13:52:00,72.0,49.0,-100.00,SW,228,22.0,35.0,44,0.00,,,0.00,685.000000,,2013-05-31 18:52:00,
2013-05-31 14:02:00,72.0,49.0,-100.00,SW,228,22.0,35.0,44,0.00,,,0.00,685.000000,,2013-05-31 19:02:00,
2013-05-31 14:11:00,74.0,48.0,-100.00,SW,230,20.0,36.0,40,0.00,,,0.00,724.000000,,2013-05-31 19:11:00,
2013-05-31 14:32:00,74.0,48.0,-100.00,SW,230,20.0,36.0,40,0.00,,,0.00,724.000000,,2013-05-31 19:32:00,
2013-05-31 14:42:00,74.0,48.0,-100.00,SW,230,20.0,36.0,40,0.00,,,0.00,724.000000,,2013-05-31 19:42:00,
2013-05-31 14:52:00,74.0,48.0,-100.00,SW,230,20.0,36.0,40,0.00,,,0.00,724.000000,,2013-05-31 19:52:00,
2013-05-31 15:02:00,74.0,48.0,-100.00,SW,230,20.0,36.0,40,0.00,,,0.00,724.000000,,2013-05-31 20:02:00,
2013-05-31 15:11:00,72.0,46.0,-100.00,SW,233,22.0,35.0,39,0.00,,,0.00,308.000000,,2013-05-31 20:11:00,
2013-05-31 15:32:00,72.0,46.0,-100.00,SW,233,22.0,35.0,39,0.00,,,0.00,308.000000,,2013-05-31 20:32:00,
2013-05-31 15:42:00,72.0,46.0,-100.00,SW,233,22.0,35.0,39,0.00,,,0.00,308.000000,,2013-05-31 20:42:00,
2013-05-31 15:52:00,72.0,46.0,-100.00,SW,233,22.0,35.0,39,0.00,,,0.00,308.000000,,2013-05-31 20:52:00,
2013-05-31 16:01:00,72.0,46.0,-100.00,SW,233,22.0,35.0,39,0.00,,,0.00,308.000000,,2013-05-31 21:01:00,
2013-05-31 16:11:00,75.0,46.0,-100.00,SW,232,24.0,34.0,36,0.00,,,0.00,419.000000,,2013-05-31 21:11:00,
2013-05-31 16:33:00,75.0,46.0,-100.00,SW,232,24.0,34.0,36,0.00,,,0.00,419.000000,,2013-05-31 21:33:00,
2013-05-31 16:43:00,75.0,46.0,-100.00,SW,232,24.0,34.0,36,0.00,,,0.00,419.000000,,2013-05-31 21:43:00,
2013-05-31 16:54:00,75.0,46.0,-100.00,SW,232,24.0,34.0,36,0.00,,,0.00,419.000000,,2013-05-31 21:54:00,
2013-05-31 17:02:00,75.0,46.0,-100.00,SW,232,24.0,34.0,36,0.00,,,0.00,419.000000,,2013-05-31 22:02:00,
2013-05-31 17:11:00,73.0,47.0,-100.00,SW,235,21.0,33.0,39,0.00,,,-99.99,211.000000,,2013-05-31 22:11:00,
2013-05-31 17:33:00,73.0,47.0,-100.00,SW,235,21.0,33.0,39,0.00,,,-99.99,211.000000,,2013-05-31 22:33:00,
2013-05-31 17:42:00,73.0,47.0,-100.00,SW,235,21.0,33.0,39,0.00,,,-99.99,211.000000,,2013-05-31 22:42:00,
2013-05-31 17:53:00,73.0,47.0,-100.00,SW,235,21.0,33.0,39,0.00,,,-99.99,211.000000,,2013-05-31 22:53:00,
2013-05-31 18:02:00,73.0,47.0,-100.00,SW,235,21.0,33.0,39,0.00,,,-99.99,211.000000,,2013-05-31 23:02:00,
2013-05-31 18:11:00,72.0,47.0,-100.00,SW,233,18.0,30.0,41,0.00,,,0.00,180.000000,,2013-05-31 23:11:00,
2013-05-31 18:32:00,72.0,47.0,-100.00,SW,233,18.0,30.0,41,0.00,,,0.00,180.000000,,2013-05-31 23:32:00,
2013-05-31 18:42:00,72.0,47.0,-100.00,SW,233,18.0,30.0,41,0.00,,,0.00,180.000000,,2013-05-31 23:42:00,
2013-05-31 18:52:00,72.0,47.0,-100.00,SW,233,18.0,30.0,41,0.00,,,0.00,180.000000,,2013-05-31 23:52:00,
2013-05-31 19:01:00,72.0,47.0,-100.00,SW,233,18.0,30.0,41,0.00,,,0.00,180.000000,,2013-06-01 00:01:00,
2013-05-31 19:11:00,69.0,48.0,-100.00,WSW,246,12.0,28.0,48,0.00,,,0.00,135.000000,,2013-06-01 00:11:00,
2013-05-31 19:32:00,69.0,48.0,-100.00,WSW,246,12.0,28.0,48,0.00,,,0.00,135.000000,,2013-06-01 00:32:00,
2013-05-31 19:42:00,69.0,48.0,-100.00,WSW,246,12.0,28.0,48,0.00,,,0.00,135.000000,,2013-06-01 00:42:00,
2013-05-31 19:52:00,69.0,48.0,-100.00,WSW,246,12.0,28.0,48,0.00,,,0.00,135.000000,,2013-06-01 00:52:00,
2013-05-31 20:01:00,69.0,48.0,-100.00,WSW,246,12.0,28.0,48,0.00,,,0.00,135.000000,,2013-06-01 01:01:00,
2013-05-31 20:11:00,66.0,50.0,-100.00,WNW,289,7.0,19.0,56,0.00,,,0.00,44.000000,,2013-06-01 01:11:00,
2013-05-31 20:32:00,66.0,50.0,-100.00,WNW,289,7.0,19.0,56,0.00,,,0.00,44.000000,,2013-06-01 01:32:00,
2013-05-31 20:42:00,66.0,50.0,-100.00,WNW,289,7.0,19.0,56,0.00,,,0.00,44.000000,,2013-06-01 01:42:00,
2013-05-31 20:52:00,66.0,50.0,-100.00,WNW,289,7.0,19.0,56,0.00,,,0.00,44.000000,,2013-06-01 01:52:00,
2013-05-31 21:01:00,66.0,50.0,-100.00,WNW,289,7.0,19.0,56,0.00,,,0.00,44.000000,,2013-06-01 02:01:00,
2013-05-31 21:11:00,63.0,50.0,-100.00,WNW,300,6.0,15.0,62,0.00,,,0.00,10.000000,,2013-06-01 02:11:00,
2013-05-31 21:32:00,63.0,50.0,-100.00,WNW,300,6.0,15.0,62,0.00,,,0.00,10.000000,,2013-06-01 02:32:00,
2013-05-31 21:42:00,63.0,50.0,-100.00,WNW,300,6.0,15.0,62,0.00,,,0.00,10.000000,,2013-06-01 02:42:00,
2013-05-31 21:52:00,63.0,50.0,-100.00,WNW,300,6.0,15.0,62,0.00,,,0.00,10.000000,,2013-06-01 02:52:00,
2013-05-31 22:01:00,63.0,50.0,-100.00,WNW,300,6.0,15.0,62,0.00,,,0.00,10.000000,,2013-06-01 03:01:00,
2013-05-31 22:11:00,62.0,50.0,-100.00,West,266,5.0,10.0,64,0.00,,,0.00,0.000000,,2013-06-01 03:11:00,
2013-05-31 22:33:00,62.0,50.0,-100.00,West,266,5.0,10.0,64,0.00,,,0.00,0.000000,,2013-06-01 03:33:00,
2013-05-31 22:43:00,62.0,50.0,-100.00,West,266,5.0,10.0,64,0.00,,,0.00,0.000000,,2013-06-01 03:43:00,
2013-05-31 22:53:00,62.0,50.0,-100.00,West,266,5.0,10.0,64,0.00,,,0.00,0.000000,,2013-06-01 03:53:00,
2013-05-31 23:03:00,62.0,50.0,-100.00,West,266,5.0,10.0,64,0.00,,,0.00,0.000000,,2013-06-01 04:03:00,
2013-05-31 23:11:00,60.0,49.0,-100.00,WSW,248,7.0,13.0,68,0.00,,,0.00,0.000000,,2013-06-01 04:11:00,
2013-05-31 23:33:00,60.0,49.0,-100.00,WSW,248,7.0,13.0,68,0.00,,,0.00,0.000000,,2013-06-01 04:33:00,
2013-05-31 23:42:00,60.0,49.0,-100.00,WSW,248,7.0,13.0,68,0.00,,,0.00,0.000000,,2013-06-01 04:42:00,
2013-05-31 23:53:00,60.0,49.0,-100.00,WSW,248,7.0,13.0,68,0.00,,,0.00,0.000000,,2013-06-01 04:53:00,